GAOFEN-12 01

Last updated on Sun Dec 14 2025 00:02:33 GMT+0000 (Coordinated Universal Time)

1 44819U 19082A 25347.28378424 .00000794 00000+0 10999-3 0 9995 2 44819 97.8126 353.5505 0001353 229.9568 130.1526 14.80658221326589
UTC large
Height (km)
Speed (km/s)
/
Latitude / Longitude
Inclination (degrees)
Orbital Period (minutes)
Azimuth
Elevation
Range (km)
Doppler Factor

Next 0 passes for location: London (51.5072 / 0.1276)

Sorry there are no passes over London.